Terminal Aerodrome Forecast
Issued by NWS

Home | Current Version | Previous Version | Text Only | Print | Product List | Glossary On
Versions: 1 2 3 4 5 6 7 8 9 10 11 12 13 14 15 16 17 18 19
000
FTUS44 KTSA 010520
TAFFYV
TAF
KFYV 010520Z 0106/0206 00000KT 6SM BR FEW002
     FM010900 00000KT 1SM BR OVC005
      TEMPO 0110/0114 1/2SM FG OVC002
     FM011400 VRB03KT P6SM BKN040
      TEMPO 0120/0124 3SM TSRA BR BKN025CB
     FM020000 02004KT P6SM BKN100=

USA.gov is the U.S. government's official web portal to all federal, state and local government web resources and services.